Location: Barcelona
(41.3830°N, 2.1830°E)
Time: 01:00:19
(UTC+02:00)

ISS - Pass Details

Date: 20 July 2019
Orbit: 409 x 418 km, 51.6° (Epoch: 23 July)

Event Time Altitude Azimuth Distance (km) Brightness Sun altitude
Rises 03:02:42 0° 310° (NW) 2,348 0.3 -26.1°
Reaches altitude 10° 03:05:00 10° 323° (NW) 1,483 -0.6 -25.9°
Maximum altitude 03:07:54 27° 23° (NNE) 833 -1.6 -25.8°
Enters shadow 03:09:02 22° 57° (ENE) 963 -1.5 -25.7°
Exits shadow 03:11:48 - 91° (E) 1,848 -0.3 -25.5°
Sets 03:13:03 0° 97° (E) 2,332 0.2 -25.5°
